Weather History for Auburn, AL

Change the Weather History Date:

Saturday, January 18, 2014

  Actual Average Record
Temperature  
Mean Temperature 35 °F -  
Max Temperature 46 °F - 73 °F (1990)
Min Temperature 23 °F - 6 °F (1977)
Degree Days  
Heating Degree Days 30    
Month to date heating degree days 474  
Since 1 July heating degree days 1377  
Moisture  
Dew Point 11 °F    
Average Humidity 40    
Maximum Humidity 59    
Minimum Humidity 20    
Precipitation  
Precipitation 0.00 in - 2.00 in (1960)
Month to date precipitation 1.52  
Year to date precipitation 1.52  
Sea Level Pressure  
Sea Level Pressure 30.14 in    
Wind  
Wind Speed 8 mph (WSW)    
Max Wind Speed 14 mph    
Max Gust Speed 18 mph    
Visibility 10 miles    
Events      
T = Trace of Precipitation, MM = Missing Value Source: NWS Daily Summary

Daily Weather History Graph

Daily Weather History Graph

Search for Another Location

Airport:

Trip Planner

Search our weather history database for the weather conditions in past years. The results will help you decide how hot, cold, wet, or windy it might be!

Date:

Astronomy

Jan. 18, 2014 Rise Set
Actual Time 6:43 AM CST 5:01 PM CST
Civil Twilight 6:16 AM CST 5:28 PM CST
Nautical Twilight 5:46 AM CST 5:58 PM CST
Astronomical Twilight 5:17 AM CST 6:27 PM CST
Moon 7:31 PM CST 7:52 AM CST
Length of Visible Light 11h 11m
Length of Day
10h 18m
Waning Gibbous, 94% of the Moon is Illuminated
Jan 18
Waning Gibbous
Jan 23
Last Quarter
Jan 30
New
Feb 6
First Quarter
Feb 14
Full

Hourly Weather History & Observations

Time (CST) Temp. Windchill Dew Point Humidity Pressure Visibility Wind Dir Wind Speed Gust Speed Precip Events Conditions
12:15 AM 30.2 °F 25.4 °F 10.4 °F 44% 30.14 in 10.0 mi West 4.6 mph - N/A   Clear
12:35 AM 30.2 °F 26.7 °F 12.2 °F 47% 30.14 in 10.0 mi NW 3.5 mph - N/A   Clear
12:55 AM 28.4 °F 23.3 °F 12.2 °F 51% 30.14 in 10.0 mi NW 4.6 mph - N/A   Clear
1:15 AM 28.4 °F 23.3 °F 12.2 °F 51% 30.15 in 10.0 mi WNW 4.6 mph - N/A   Clear
1:35 AM 28.4 °F 23.3 °F 12.2 °F 51% 30.15 in 10.0 mi West 4.6 mph - N/A   Clear
1:55 AM 28.4 °F 24.6 °F 12.2 °F 51% 30.15 in 10.0 mi West 3.5 mph - N/A   Clear
2:15 AM 28.4 °F 23.3 °F 12.2 °F 51% 30.16 in 10.0 mi West 4.6 mph - N/A   Clear
2:35 AM 26.6 °F 22.6 °F 12.2 °F 55% 30.16 in 10.0 mi West 3.5 mph - N/A   Clear
2:55 AM 26.6 °F 21.2 °F 12.2 °F 55% 30.15 in 10.0 mi WNW 4.6 mph - N/A   Clear
3:15 AM 26.6 °F 21.2 °F 12.2 °F 55% 30.16 in 10.0 mi WNW 4.6 mph - N/A   Clear
3:35 AM 26.6 °F 22.6 °F 12.2 °F 55% 30.16 in 10.0 mi WNW 3.5 mph - N/A   Clear
3:55 AM 26.6 °F 22.6 °F 12.2 °F 55% 30.16 in 10.0 mi West 3.5 mph - N/A   Clear
4:15 AM 26.6 °F 20.0 °F 12.2 °F 55% 30.17 in 10.0 mi WSW 5.8 mph - N/A   Clear
4:35 AM 24.8 °F 17.9 °F 12.2 °F 59% 30.17 in 10.0 mi SW 5.8 mph - N/A   Clear
4:55 AM 24.8 °F 17.9 °F 12.2 °F 59% 30.18 in 10.0 mi SW 5.8 mph - N/A   Clear
5:15 AM 24.8 °F 19.1 °F 12.2 °F 59% 30.18 in 10.0 mi WSW 4.6 mph - N/A   Clear
5:35 AM 24.8 °F 20.5 °F 12.2 °F 59% 30.18 in 10.0 mi WSW 3.5 mph - N/A   Clear
5:55 AM 24.8 °F 19.1 °F 12.2 °F 59% 30.19 in 10.0 mi West 4.6 mph - N/A   Clear
6:15 AM 24.8 °F 16.9 °F 12.2 °F 59% 30.20 in 10.0 mi West 6.9 mph - N/A   Clear
6:35 AM 24.8 °F 17.9 °F 10.4 °F 54% 30.20 in 10.0 mi West 5.8 mph - N/A   Clear
6:55 AM 24.8 °F 17.9 °F 12.2 °F 59% 30.20 in 10.0 mi West 5.8 mph - N/A   Clear
7:15 AM 24.8 °F 19.1 °F 12.2 °F 59% 30.20 in 10.0 mi West 4.6 mph - N/A   Clear
7:35 AM 26.6 °F 20.0 °F 12.2 °F 55% 30.21 in 10.0 mi West 5.8 mph - N/A   Clear
7:55 AM 26.6 °F 19.1 °F 12.2 °F 55% 30.22 in 10.0 mi West 6.9 mph - N/A   Clear
8:15 AM 28.4 °F 22.2 °F 12.2 °F 51% 30.23 in 10.0 mi West 5.8 mph - N/A   Clear
8:35 AM 30.2 °F 24.3 °F 12.2 °F 47% 30.23 in 10.0 mi West 5.8 mph - N/A   Clear
8:55 AM 30.2 °F 22.6 °F 10.4 °F 44% 30.24 in 10.0 mi West 8.1 mph - N/A   Clear
9:15 AM 33.8 °F 27.0 °F 12.2 °F 41% 30.26 in 10.0 mi WNW 8.1 mph - N/A   Clear
9:35 AM 33.8 °F 27.0 °F 10.4 °F 38% 30.26 in 10.0 mi WNW 8.1 mph - N/A   Clear
9:55 AM 33.8 °F 25.8 °F 10.4 °F 38% 30.26 in 10.0 mi WNW 10.4 mph - N/A   Clear
10:15 AM 35.6 °F 30.7 °F 10.4 °F 35% 30.26 in 10.0 mi WSW 5.8 mph - N/A   Clear
10:35 AM 37.4 °F 30.8 °F 8.6 °F 30% 30.25 in 10.0 mi WNW 9.2 mph 17.3 mph N/A   Clear
10:55 AM 39.2 °F 31.6 °F 8.6 °F 28% 30.24 in 10.0 mi WNW 12.7 mph - N/A   Clear
11:15 AM 39.2 °F 33.0 °F 6.8 °F 26% 30.23 in 10.0 mi WSW 9.2 mph 18.4 mph N/A   Clear
11:35 AM 39.2 °F 32.5 °F 6.8 °F 26% 30.21 in 10.0 mi West 10.4 mph - N/A   Clear
11:55 AM 39.2 °F 33.0 °F 6.8 °F 26% 30.19 in 10.0 mi West 9.2 mph - N/A   Clear
12:15 PM 42.8 °F 38.0 °F 8.6 °F 25% 30.18 in 10.0 mi West 8.1 mph - N/A   Clear
12:35 PM 42.8 °F 38.0 °F 6.8 °F 23% 30.17 in 10.0 mi West 8.1 mph - N/A   Clear
12:55 PM 44.6 °F 39.7 °F 6.8 °F 21% 30.16 in 10.0 mi West 9.2 mph - N/A   Clear
1:15 PM 44.6 °F 40.2 °F 6.8 °F 21% 30.15 in 10.0 mi SSW 8.1 mph - N/A   Clear
1:35 PM 44.6 °F 39.7 °F 6.8 °F 21% 30.14 in 10.0 mi SW 9.2 mph 18.4 mph N/A   Clear
1:55 PM 44.6 °F 39.7 °F 6.8 °F 21% 30.13 in 10.0 mi SSW 9.2 mph - N/A   Clear
2:15 PM 44.6 °F 39.2 °F 6.8 °F 21% 30.12 in 10.0 mi SW 10.4 mph - N/A   Clear
2:35 PM 44.6 °F 38.8 °F 8.6 °F 23% 30.12 in 10.0 mi WSW 11.5 mph - N/A   Clear
2:55 PM 44.6 °F 39.7 °F 6.8 °F 21% 30.11 in 10.0 mi WSW 9.2 mph - N/A   Clear
3:15 PM 46.4 °F 41.1 °F 6.8 °F 20% 30.11 in 10.0 mi SW 11.5 mph - N/A   Clear
3:35 PM 46.4 °F 42.9 °F 6.8 °F 20% 30.10 in 10.0 mi SSW 6.9 mph - N/A   Clear
3:55 PM 44.6 °F 38.1 °F 8.6 °F 23% 30.10 in 10.0 mi SSW 13.8 mph - N/A   Clear
4:15 PM 44.6 °F 38.4 °F 8.6 °F 23% 30.10 in 10.0 mi SSW 12.7 mph - N/A   Clear
4:35 PM 44.6 °F 39.7 °F 8.6 °F 23% 30.10 in 10.0 mi SW 9.2 mph 16.1 mph N/A   Clear
4:55 PM 42.8 °F 38.0 °F 8.6 °F 25% 30.09 in 10.0 mi SSW 8.1 mph - N/A   Clear
5:15 PM 39.2 °F 34.2 °F 12.2 °F 33% 30.09 in 10.0 mi SSW 6.9 mph - N/A   Clear
5:35 PM 39.2 °F 35.0 °F 12.2 °F 33% 30.09 in 10.0 mi South 5.8 mph - N/A   Clear
5:55 PM 37.4 °F 32.1 °F 12.2 °F 36% 30.09 in 10.0 mi South 6.9 mph - N/A   Clear
6:15 PM 37.4 °F 32.1 °F 12.2 °F 36% 30.08 in 10.0 mi South 6.9 mph - N/A   Clear
6:35 PM 37.4 °F 31.4 °F 15.8 °F 41% 30.07 in 10.0 mi South 8.1 mph - N/A   Clear
6:55 PM 39.2 °F 34.2 °F 12.2 °F 33% 30.07 in 10.0 mi South 6.9 mph - N/A   Clear
7:15 PM 37.4 °F 30.8 °F 14.0 °F 38% 30.07 in 10.0 mi South 9.2 mph - N/A   Clear
7:35 PM 37.4 °F 30.3 °F 14.0 °F 38% 30.05 in 10.0 mi South 10.4 mph - N/A   Clear
7:55 PM 39.2 °F 32.5 °F 12.2 °F 33% 30.05 in 10.0 mi South 10.4 mph - N/A   Clear
8:15 PM 37.4 °F 29.8 °F 14.0 °F 38% 30.05 in 10.0 mi South 11.5 mph - N/A   Clear
8:35 PM 37.4 °F 29.8 °F 14.0 °F 38% 30.04 in 10.0 mi South 11.5 mph - N/A   Clear
8:55 PM 37.4 °F 29.8 °F 14.0 °F 38% 30.04 in 10.0 mi South 11.5 mph - N/A   Clear
9:15 PM 37.4 °F 30.8 °F 14.0 °F 38% 30.05 in 10.0 mi South 9.2 mph - N/A   Clear
9:35 PM 37.4 °F 30.3 °F 14.0 °F 38% 30.05 in 10.0 mi South 10.4 mph - N/A   Clear
9:55 PM 37.4 °F 31.4 °F 15.8 °F 41% 30.05 in 10.0 mi South 8.1 mph - N/A   Clear
10:15 PM 35.6 °F 28.6 °F 15.8 °F 44% 30.04 in 10.0 mi South 9.2 mph - N/A   Clear
10:35 PM 35.6 °F 29.2 °F 15.8 °F 44% 30.05 in 10.0 mi SSW 8.1 mph - N/A   Clear
10:55 PM 35.6 °F 29.9 °F 15.8 °F 44% 30.06 in 10.0 mi West 6.9 mph - N/A   Clear
11:15 PM 37.4 °F 30.3 °F 17.6 °F 45% 30.05 in 10.0 mi SSW 10.4 mph - N/A   Scattered Clouds
11:35 PM 37.4 °F 31.4 °F 17.6 °F 45% 30.05 in 10.0 mi SSW 8.1 mph - N/A   Mostly Cloudy
11:55 PM 37.4 °F 30.8 °F 17.6 °F 45% 30.05 in 10.0 mi SSW 9.2 mph - N/A   Overcast